Regional Weather Roundup
Issued by NWS

Home | Current Version | Previous Version | Text Only | Print | Product List | Glossary On
Versions: 1 2 3 4 5 6 7 8 9 10 11 12 13 14 15 16 17 18 19 20 21 22 23 24 25 26 27 28 29 30 31 32 33 34 35 36 37 38 39 40 41 42 43 44 45 46 47 48 49 50
000
ASUS43 KDTX 250301
RWRMI
MICHIGAN HOURLY REGIONAL WEATHER ROUNDUP
NATIONAL WEATHER SERVICE DETROIT/PONTIAC MI
1000 PM EST WED DEC 24 2014

NOTE: "FAIR" INDICATES FEW OR NO CLOUDS BELOW 12,000 FEET WITH NO
SIGNIFICANT WEATHER AND/OR OBSTRUCTION TO VISIBILITY.

MIZ047>049-052>055-059>063-066>070-074>076-081>083-250400-
SOUTHEAST LOWER MICHIGAN

CITY           SKY/WX    TMP DP  RH WIND       PRES   REMARKS
ADRIAN         CLOUDY    36  33  89 W15G23    29.49R WCI  27
ALMA           LGT SNOW  32  32 100 W12       29.39R WCI  23
ANN ARBOR      MIX PCPN  36  33  89 W20G28    29.43R WCI  25
BAD AXE        FLURRIES  34  34 100 W17G25    29.25R WCI  23
CARO           LGT SNOW  33  32  96 W15G24    29.32R WCI  23
DETROIT CITY   CLOUDY    38  33  82 W18G30    29.39R WCI  28
DETROIT        LGT RAIN  37  34  89 SW17G26   29.43R WCI  27
FLINT          LGT SNOW  35  32  88 W18G28    29.38R FOG     WCI  24
GROSSE ILE     CLOUDY    37  36  93 W16G30    29.42R WCI  28
HILLSDALE      FLURRIES  35  35 100 W13       29.47R WCI  26
HOWELL         LGT SNOW  33  33 100 W13       29.41R WCI  23

CITY           SKY/WX    TMP DP  RH WIND       PRES   REMARKS
JACKSON        FLURRIES  34  32  92 W13G18    29.45R WCI  25
LAMBERTVILLE   CLOUDY    37  34  87 W14G25    29.49R WCI  29
LANSING        LGT SNOW  33  32  96 W15       29.43R FOG     WCI  23
LAPEER         LGT SNOW  33  32  97 W12G21    29.33R WCI  24
MASON          LGT SNOW  32  32  98 W8        29.44R WCI  25
MONROE         CLOUDY    37  36  93 W18G24    29.45R WCI  27
MT. CLEMENS    LGT RAIN  36 N/A N/A W20G25    29.33R WCI  25
PONTIAC        LGT SNOW  34  32  92 W17G28    29.36R FOG     WCI  23
PORT HOPE        N/A     35  33  92 NW12G21   29.11F WCI  27
PORT HURON     LGT RAIN  37  37 100 W10G26    29.31R WCI  30
TRI CITIES     LGT SNOW  34  32  92 W16       29.35R FOG     WCI  24
TROY           CLOUDY    37  34  90 W15G28    29.39R WCI  28
SAGINAW HB     LGT SNOW  32  32 100 W15       29.35R WCI  22
$$
MIZ043>046-050>051-056>058-064>065-071>073-077>080-250400-
SOUTHWEST LOWER MICHIGAN

CITY           SKY/WX    TMP DP  RH WIND       PRES   REMARKS
BATTLE CREEK   LGT SNOW  34  32  92 SW12      29.48R FOG     WCI  25
BENTON HARBOR  CLOUDY    37  36  96 W16       29.52S WCI  28
BIG RAPIDS     LGT SNOW  33  33 100 W10       29.38R WCI  25
COLDWATER      FLURRIES  33  33  99 MISG      29.50R
FREMONT        DRIZZLE   35  35  99 W7        29.42S WCI  29
HOLLAND        CLOUDY    40  35  83 W10       29.48R WCI  33
GRAND RAPIDS   LGT SNOW  33  32  96 SW10      29.45S FOG     WCI  25
IONIA          FLURRIES  33  33 100 W10       29.43R WCI  25
KALAMAZOO      FLURRIES  34  32  92 SW8       29.49R WCI  27
LUDINGTON      CLOUDY    37  36  93 NW7G21    29.44R WCI  32
MARSHALL       LGT SNOW  32  32 100 SW9       29.47R WCI  24
MOUNT PLEASANT LGT SNOW  33  32  98 SW5       29.36S WCI  28
MUSKEGON       CLOUDY    38  34  85 W13       29.46R WCI  30
SOUTH HAVEN    DRIZZLE   39  37  91 W10G16    29.50R WCI  32
$$
MIZ016>042-250400-
NORTHERN LOWER MICHIGAN

CITY           SKY/WX    TMP DP  RH WIND       PRES   REMARKS
ALPENA         LGT SNOW  33  32  96 NW5       29.25S FOG     WCI  29
BEAVER ISLAND  CLOUDY    33  32  95 NW9G17    29.35F WCI  26
BELLAIRE       MIX PCPN  36  34  93 NW7       29.34S WCI  30
CADILLAC       LGT SNOW  33  32  96 W9        29.34R WCI  25
CHARLEVOIX     CLOUDY    35  34  98 NW15      29.36R WCI  25
FRANKFORT      CLOUDY    35  33  95 NW9G20    29.40S WCI  27
GAYLORD        LGT SNOW  32  32 100 W10       29.27F FOG     WCI  24
GRAYLING       LGT SNOW  33  33 100 W9        29.30S WCI  25
HARBOR SPRINGS CLOUDY    34  33  93 NW7       29.32R WCI  28
HOUGHTON LAKE  LGT SNOW  33  31  92 W9        29.31R FOG     WCI  25
MANISTEE       CLOUDY    36  34  93 NW13      29.42R WCI  27
OSCODA         FLURRIES  33  33  99 NW17G23   29.17F WCI  22
PELLSTON       CLOUDY    34  32  92 NW12      29.32F WCI  25
ROGERS CITY    MIX PCPN  35  35 100 NW9       29.27S WCI  27
TRAVERSE CITY  CLOUDY    36  34  92 NW10      29.36R WCI  28
$$
MIZ007>008-015-250400-
EASTERN UPPER MICHIGAN

CITY           SKY/WX    TMP DP  RH WIND       PRES   REMARKS
KINROSS        CLOUDY    34  34 100 NW13      29.27F WCI  25
MACKINAC ISLAN FLURRIES  34  34 100 NW7       29.29F WCI  28
NEWBERRY       CLOUDY    32  32 100 NW10      29.33R WCI  24
S. S. MARIE    CLOUDY    34  33  96 NW7       29.28S WCI  28
$$
MIZ004>006-011>014-085-250400-
CENTRAL UPPER MICHIGAN

CITY           SKY/WX    TMP DP  RH WIND       PRES   REMARKS
MANISTIQUE     CLOUDY    32  32 100 NW13      29.36S WCI  22
ESCANABA       CLOUDY    32  27  80 NW10      29.40F WCI  24
MENOMINEE      CLOUDY    32  28  86 NW6       29.45S WCI  26
SAWYER-GWINN   CLOUDY    30  28  93 N10       29.40F WCI  21
$$
MIZ001>003-009>011-084-250400-
WESTERN UPPER MICHIGAN

CITY           SKY/WX    TMP DP  RH WIND       PRES   REMARKS
IRON MOUNTAIN  CLOUDY    31  27  85 NW13      29.43S WCI  21
HOUGHTON       LGT SNOW  32  29  88 NW12      29.43F FOG     WCI  23
COPPER HARBOR    N/A     33  30  88 NE13      29.43F WCI  24
IRONWOOD       CLOUDY    30  30 100 W6        29.46F WCI  24
$$

ABBREVIATIONS USED IN REMARKS
   TC - TEMPERATURE IN CELSIUS
  WCI - WIND CHILL INDEX
   HX - HEAT INDEX
  VSB - VISIBILITY



USA.gov is the U.S. government's official web portal to all federal, state and local government web resources and services.